[[{"header":{"parameterUnit":"m.s-1","parameterCategory":2,"la1":30.2991,"la2":30.254,"lo1":-89.0895,"lo2":-89.0444,"dy":0.0017,"dx":0.0017,"nx":28,"ny":28,"refTime":"2024-09-02T09:00:00:Z","depth":"0","parameterNumber":2,"parameterNumberName":"U-component_of_CURRENTS"},"data":[0,0,0,0,0,0,0,0,0,0,0,0,0,0,0,0,0,0,0,0,0,0,0,0,0,0,0,0,0,0,0,0,0,0,0,0,0,0,0,0,0,0,0,0,0,0,0,0,0,0,0,0,0,0,0,0,0,0,0.2112,0.2114,0,0.225,0.2251,0.2252,0.2318,0.2318,0.2318,0.2318,0.223,0.2227,0.2225,0,0,0,0,0,0,0,0,0,0,0,0,0,0.1831,0.1836,0.2112,0.2114,0.2116,0.225,0.2251,0.2253,0.2318,0.2318,0.2318,0.2319,0.2231,0.2228,0.2225,0,0,0,0,0,0,0,0,0,0,0,0,0,0.1957,0.1838,0.2112,0.2167,0.2173,0.2249,0.2251,0.2253,0.2318,0.2318,0.2318,0.2319,0.2232,0.2228,0.2224,0.2195,0,0,0.2212,0.2211,0,0,0,0,0,0,0,0,0.195,0.1967,0.2157,0.2163,0.2171,0.2269,0.212,0.2223,0.2318,0.226,0.2318,0.2319,0.2223,0.2221,0.2245,0.2191,0.2187,0.2212,0.221,0.2208,0.2207,0,0,0,0,0,0,0,0.1941,0.1961,0.2164,0.2159,0.2167,0.2159,0.2178,0.214,0.2232,0.2265,0.2271,0.2291,0.2225,0.2249,0.2243,0.2185,0.2212,0.2209,0.2206,0.2205,0.2186,0.2188,0,0,0,0,0,0,0.1935,0.1954,0.2159,0.2168,0.2062,0.2164,0.2185,0.2235,0.2238,0.2241,0.229,0.2293,0.2255,0.2247,0.2239,0.2237,0.2208,0.2205,0.2202,0.2184,0.2187,0.2188,0,0,0,0,0,0,0.1929,0.1953,0.2154,0.2063,0.2089,0.217,0.2225,0.2238,0.2263,0.226,0.2258,0.2303,0.2255,0.2245,0.2247,0.2232,0.2203,0.2199,0.2182,0.2185,0.2188,0.2209,0,0,0,0,0,0,0.192,0.1951,0.197,0.2065,0.2094,0.2197,0.2225,0.224,0.2276,0.2281,0.2269,0.2262,0.2254,0.2253,0.2243,0.2226,0.2196,0.218,0.2184,0.2187,0.2206,0.2212,0.2218,0,0,0,0,0,0.191,0.1945,0.1971,0.1995,0.2125,0.2197,0.2211,0.2265,0.2276,0.2288,0.2309,0.2263,0.2267,0.2252,0.2239,0.2221,0.2178,0.2183,0.2186,0.2204,0.2211,0.2217,0,0,0,0,0,0,0.1818,0.1958,0.1988,0.2059,0.2119,0.2209,0.2226,0.226,0.229,0.2286,0.2282,0.2278,0.2275,0.2255,0.2239,0.2234,0.2214,0.2216,0.2232,0.2238,0.2244,0.2204,0.2193,0,0,0,0,0,0.1811,0.188,0.1987,0.2033,0.2068,0.2142,0.2173,0.2212,0.2258,0.2273,0.2273,0.2275,0.2282,0.2268,0.2266,0.2248,0.222,0.2235,0.224,0.2245,0.221,0.2204,0.2204,0.2202,0.2202,0.2202,0,0,0.1782,0.1867,0.1902,0.2017,0.2069,0.2118,0.2161,0.221,0.2237,0.2249,0.227,0.2286,0.2287,0.2294,0.2287,0.227,0.2236,0.225,0.2253,0.2215,0.2208,0.2208,0.2207,0.2204,0.2204,0.2204,0,0,0.1758,0.1839,0.1887,0.1946,0.2033,0.2087,0.2099,0.2187,0.2213,0.2245,0.2272,0.2287,0.2286,0.2296,0.2298,0.2326,0.2273,0.2328,0.2305,0.2301,0.23,0.2299,0.2274,0.227,0.2323,0.2323,0.2323,0,0.1703,0.1804,0.1899,0.1954,0.1993,0.2071,0.2105,0.2148,0.2219,0.2224,0.2247,0.2278,0.2283,0.2287,0.232,0.2328,0.2317,0.2275,0.2304,0.2302,0.23,0.2275,0.227,0.2324,0.2324,0.2324,0.2324,0,0.1731,0.1797,0.1823,0.1931,0.1975,0.2019,0.2099,0.2125,0.2162,0.2198,0.2215,0.2254,0.2263,0.2284,0.231,0.2304,0.2299,0.2317,0.2276,0.2301,0.2274,0.2269,0.2326,0.2326,0.2325,0.2325,0,0,0.1644,0.1811,0.1818,0.1864,0.1971,0.2014,0.2045,0.2099,0.2105,0.2158,0.2157,0.2208,0.2221,0.2227,0.2261,0.2266,0.2267,0.2286,0.2286,0.224,0.2244,0.2057,0.2033,0.2296,0.2295,0.2295,0.2234,0,0.1627,0.1733,0.181,0.1868,0.193,0.1992,0.2016,0.206,0.2094,0.2109,0.2139,0.2158,0.2203,0.2215,0.2227,0.2263,0.2252,0.228,0.2243,0.224,0.2054,0.202,0.1869,0.1785,0.2228,0.2227,0.2226,0,0.1635,0.1712,0.1785,0.1873,0.1896,0.1921,0.1963,0.1993,0.2022,0.204,0.2051,0.2084,0.2102,0.2145,0.2165,0.2185,0.2202,0.2223,0.2222,0.2021,0.2041,0.1832,0.1757,0.1709,0.2218,0.2218,0.2219,0,0.1583,0.1686,0.1746,0.1783,0.189,0.1893,0.1924,0.196,0.1972,0.1988,0.1985,0.2014,0.2024,0.2056,0.2088,0.214,0.2086,0.2166,0.2,0.1989,0.183,0.1803,0.1673,0.2147,0.2148,0.2148,0.2148,0,0.1577,0.1617,0.1724,0.1767,0.1792,0.1858,0.186,0.189,0.1902,0.19,0.194,0.1933,0.2006,0.1993,0.204,0.1957,0.2039,0.1951,0.1942,0.1835,0.181,0.1736,0.175,0.2145,0.2146,0.2146,0.2147,0,0.1547,0.1621,0.169,0.1776,0.1788,0.1807,0.1836,0.184,0.1845,0.1838,0.1839,0.1865,0.1835,0.1851,0.188,0.1858,0.1746,0.1781,0.1624,0.1593,0.1384,0.1406,0.1218,0.1205,0.1596,0.1591,0.1587,0,0.1559,0.1602,0.1692,0.1717,0.1756,0.178,0.1794,0.1814,0.1812,0.1796,0.1786,0.1741,0.1704,0.1608,0.1537,0.1477,0.1532,0.1303,0.1358,0.1286,0.131,0.1348,0.136,0.1189,0.1182,0.1176,0.1171,0,0.1584,0.1611,0.1678,0.1724,0.1744,0.176,0.1771,0.1756,0.1763,0.1727,0.1679,0.1638,0.1487,0.1316,0.1165,0.1144,0.119,0.1172,0.1158,0.0982,0.0957,0.0969,0.1323,0.1117,0.1122,0.1126,0.1129,0.1131,0.1595,0.1636,0.1714,0.1735,0.1757,0.1745,0.1713,0.1704,0.1664,0.1559,0.1561,0.1386,0.1155,0.0909,0.0873,0.0629,0.0799,0.0612,0.065,0.0702,0.0639,0.0826,0.0567,0.0569,0.0571,0.0573,0.0574,0,0.1619,0.1672,0.1716,0.175,0.1737,0.174,0.1703,0.1626,0.1538,0.1413,0.1307,0.0929,0.0676,0.0499,0.0187,0.0122,0.0224,0.0128,0.0201,0.0253,0.045,0.0379,-0.0008,-0.0008,-0.0008,-0.0008,-0.0008,-0.0008,0.1653,0.1703,0.1716,0.1713,0.171,0.1635,0.1581,0.1458,0.1331,0.1026,0.0754,0.0604,0.0307,-0.0045,-0.0247,-0.0223,-0.0124,-0.02,-0.0059,0.0117,0.0169,0.0219,0.0155,-0.0273,-0.0273,-0.0275,-0.0275,-0.0276]},{"header":{"parameterUnit":"m.s-1","parameterCategory":2,"la1":30.2991,"la2":30.254,"lo1":-89.0895,"lo2":-89.0444,"dy":0.0017,"dx":0.0017,"nx":28,"ny":28,"refTime":"2024-09-02T09:00:00:Z","depth":"0","parameterNumber":3,"parameterNumberName":"V-component_of_CURRENTS"},"data":[0,0,0,0,0,0,0,0,0,0,0,0,0,0,0,0,0,0,0,0,0,0,0,0,0,0,0,0,0,0,0,0,0,0,0,0,0,0,0,0,0,0,0,0,0,0,0,0,0,0,0,0,0,0,0,0,0,0,-0.0107,-0.0107,0,-0.0134,-0.0134,-0.0134,-0.0144,-0.0144,-0.0144,-0.0144,-0.0083,-0.0081,-0.0079,0,0,0,0,0,0,0,0,0,0,0,0,0,-0.003,-0.0031,-0.0107,-0.0107,-0.0108,-0.0134,-0.0134,-0.0134,-0.0144,-0.0144,-0.0144,-0.0144,-0.0083,-0.0081,-0.0079,0,0,0,0,0,0,0,0,0,0,0,0,0,-0.0059,-0.0032,-0.0107,-0.0117,-0.0118,-0.0134,-0.0134,-0.0134,-0.0144,-0.0144,-0.0144,-0.0145,-0.0084,-0.0081,-0.0079,-0.0061,0,0,-0.0071,-0.007,0,0,0,0,0,0,0,0,-0.0058,-0.0062,-0.0115,-0.0116,-0.0118,-0.0137,-0.0085,-0.0106,-0.0144,-0.0133,-0.0144,-0.0145,-0.0094,-0.009,-0.0094,-0.0058,-0.0056,-0.0071,-0.0069,-0.0068,-0.0067,0,0,0,0,0,0,0,-0.0056,-0.0061,-0.0116,-0.0115,-0.0117,-0.0109,-0.0113,-0.0089,-0.0109,-0.0134,-0.0135,-0.0141,-0.0093,-0.0097,-0.0092,-0.0055,-0.0071,-0.0069,-0.0067,-0.0066,0.0011,0.0012,0,0,0,0,0,0,-0.0058,-0.0059,-0.0115,-0.0117,-0.0089,-0.0111,-0.0115,-0.013,-0.0112,-0.011,-0.014,-0.0141,-0.0101,-0.0095,-0.009,-0.0063,-0.0068,-0.0066,-0.0064,0.0011,0.0011,0.0012,0,0,0,0,0,0,-0.0056,-0.0063,-0.0114,-0.0089,-0.0095,-0.0112,-0.0128,-0.013,-0.0133,-0.0118,-0.0115,-0.0141,-0.0101,-0.0094,-0.0074,-0.006,-0.0065,-0.0062,0.001,0.0011,0.0012,-0.0011,0,0,0,0,0,0,-0.0054,-0.0062,-0.0068,-0.009,-0.0097,-0.0121,-0.0128,-0.0131,-0.0137,-0.0138,-0.0117,-0.0112,-0.01,-0.0078,-0.0072,-0.0057,-0.006,0.0009,0.001,0.0011,-0.001,-0.0011,-0.0011,0,0,0,0,0,-0.0051,-0.006,-0.0068,-0.0074,-0.0106,-0.0121,-0.0124,-0.0134,-0.0137,-0.0137,-0.0129,-0.0113,-0.0067,-0.0076,-0.0069,-0.0053,0.0009,0.001,0.0011,-0.001,-0.0011,-0.0011,0,0,0,0,0,0,-0.0027,-0.0063,-0.0072,-0.0091,-0.0104,-0.0123,-0.0125,-0.0133,-0.0128,-0.0126,-0.0111,-0.0105,-0.0082,-0.0063,-0.0074,-0.0026,-0.0023,-0.0021,-0.0042,-0.0042,-0.0042,-0.0035,-0.0058,0,0,0,0,0,-0.0026,-0.0043,-0.007,-0.0082,-0.009,-0.0106,-0.0112,-0.0121,-0.0124,-0.0123,-0.0111,-0.0091,-0.0071,-0.0056,-0.0036,-0.001,0.0025,0.0008,0.0008,0.0007,0.0019,0.0087,0.0095,0.0016,0.0016,0.0016,0,0,-0.0018,-0.004,-0.0049,-0.0078,-0.0089,-0.0098,-0.0109,-0.0119,-0.0121,-0.0113,-0.0105,-0.0093,-0.0066,-0.0044,-0.003,-0.0025,0.0045,0.0009,0.0008,0.002,0.0089,0.0097,0.0104,0.0017,0.0016,0.0016,0,0,-0.0012,-0.0032,-0.0044,-0.0057,-0.0078,-0.0088,-0.009,-0.0109,-0.0111,-0.0106,-0.01,-0.008,-0.0053,-0.0033,-0.0017,-0.0002,0.0038,0.0007,0.0017,0.0083,0.009,0.0097,0.0134,0.0145,0.0011,0.0011,0.0011,0,-0.0,-0.0025,-0.0046,-0.0059,-0.0067,-0.0083,-0.009,-0.0093,-0.0102,-0.0095,-0.0102,-0.0059,-0.0044,-0.0005,-0.0008,-0.0,0.0035,0.0011,0.0083,0.0091,0.0098,0.0135,0.0147,0.001,0.001,0.0011,0.0011,0,-0.0005,-0.0022,-0.0027,-0.0051,-0.0058,-0.0067,-0.008,-0.0079,-0.0083,-0.0083,-0.0055,-0.004,-0.0009,-0.0005,-0.0005,0.0054,0.0059,0.007,0.0082,0.0105,0.0142,0.0154,0.0009,0.0009,0.001,0.001,0,0,0.0009,-0.0025,-0.0026,-0.0036,-0.0057,-0.0063,-0.0061,-0.0061,-0.0046,-0.0047,-0.0018,-0.0001,0.0009,0.0028,0.0038,0.0085,0.015,0.0097,0.0101,0.0131,0.0283,0.0261,0.0273,0.0178,0.018,0.0182,0.028,0,0.0011,-0.001,-0.0026,-0.0034,-0.0047,-0.0054,-0.0047,-0.0044,-0.0035,-0.0009,0.0013,0.0043,0.0023,0.0043,0.0085,0.0147,0.0186,0.0121,0.026,0.0263,0.024,0.0288,0.0273,0.0358,0.0293,0.0295,0.0297,0,0.0008,-0.0008,-0.0021,-0.0032,-0.0035,-0.0035,-0.002,-0.0015,0.0018,0.0029,0.0061,0.008,0.014,0.0122,0.0237,0.02,0.0236,0.0274,0.0279,0.0281,0.0267,0.033,0.0384,0.0408,0.0316,0.0315,0.0313,0,0.0016,-0.0003,-0.0013,-0.002,-0.0031,-0.0026,-0.0022,-0.0001,0.0017,0.0063,0.0094,0.0152,0.0206,0.0266,0.0322,0.0296,0.0453,0.0431,0.0439,0.0437,0.0464,0.046,0.0559,0.0511,0.0511,0.0511,0.0511,0,0.0012,0.0005,-0.0009,-0.0017,-0.001,-0.0017,0.0007,0.0017,0.0057,0.0102,0.012,0.0181,0.0251,0.0333,0.0363,0.0449,0.0491,0.0458,0.0475,0.0451,0.0445,0.0498,0.0515,0.0515,0.0514,0.0513,0.0513,0,0.0011,0.0001,-0.001,-0.0015,-0.0013,-0.0007,0.0016,0.0044,0.0075,0.014,0.0161,0.0242,0.0354,0.0404,0.0524,0.0517,0.0612,0.0597,0.0546,0.0553,0.0557,0.0573,0.072,0.0748,0.0629,0.063,0.063,0,0.0004,-0.0002,-0.0007,-0.0001,-0.0005,0.0008,0.0027,0.0049,0.0085,0.0183,0.0227,0.034,0.0433,0.0577,0.0596,0.0652,0.0664,0.0643,0.0583,0.0575,0.0606,0.0619,0.0632,0.0606,0.0606,0.0606,0.0606,0,-0.0001,0.0,-0.0004,0.0008,0.0022,0.004,0.007,0.0099,0.0151,0.0221,0.0342,0.0428,0.0545,0.062,0.066,0.0673,0.0668,0.0642,0.0675,0.0635,0.0622,0.0649,0.05,0.0606,0.0606,0.0606,0.0606,0.0606,0.0003,0.0006,0.0012,0.0025,0.0044,0.0081,0.011,0.0163,0.0237,0.0349,0.0419,0.0538,0.0608,0.0674,0.0698,0.0678,0.0695,0.0656,0.0687,0.0708,0.0709,0.0538,0.063,0.063,0.063,0.063,0.0631,0,0.0014,0.0023,0.0035,0.0057,0.0091,0.0093,0.015,0.0196,0.0299,0.0392,0.0503,0.0584,0.0668,0.0696,0.0693,0.0715,0.0723,0.0728,0.0753,0.0773,0.0661,0.0629,0.0677,0.0677,0.0677,0.0677,0.0677,0.0677,0.0023,0.0041,0.0048,0.01,0.0122,0.0172,0.0208,0.0285,0.035,0.0461,0.051,0.0554,0.0579,0.073,0.0778,0.0781,0.0845,0.0836,0.0885,0.0795,0.079,0.0786,0.076,0.0834,0.0834,0.0976,0.0978,0.0979]}],[{"header":{"parameterUnit":"m.s-1","parameterCategory":2,"la1":30.2991,"la2":30.254,"lo1":-89.0895,"lo2":-89.0444,"dy":0.0017,"dx":0.0017,"nx":28,"ny":28,"refTime":"2024-09-02T09:00:00:Z","depth":"2","parameterNumber":2,"parameterNumberName":"U-component_of_CURRENTS"},"data":[0,0,0,0,0,0,0,0,0,0,0,0,0,0,0,0,0,0,0,0,0,0,0,0,0,0,0,0,0,0,0,0,0,0,0,0,0,0,0,0,0,0,0,0,0,0,0,0,0,0,0,0,0,0,0,0,0,0,0.0785,0.0785,0,0.0775,0.0775,0.0775,0.0797,0.0798,0.0799,0.0799,0.083,0.0831,0.0831,0,0,0,0,0,0,0,0,0,0,0,0,0,0.0851,0.0849,0.0785,0.0785,0.0785,0.0775,0.0775,0.0775,0.0797,0.0798,0.0799,0.08,0.083,0.0831,0.0831,0,0,0,0,0,0,0,0,0,0,0,0,0,0.0829,0.0849,0.0785,0.0796,0.0796,0.0775,0.0775,0.0774,0.0797,0.0798,0.0799,0.08,0.083,0.083,0.0831,0.0808,0,0,0.0831,0.0831,0,0,0,0,0,0,0,0,0.083,0.0826,0.0794,0.0795,0.0796,0.0789,0.0809,0.0788,0.0796,0.0796,0.0799,0.0801,0.082,0.0821,0.0815,0.0809,0.0811,0.0831,0.0831,0.0831,0.0831,0,0,0,0,0,0,0,0.0832,0.0827,0.0781,0.0794,0.0795,0.081,0.0808,0.0805,0.0802,0.0796,0.0798,0.0797,0.0821,0.0815,0.0816,0.0811,0.0831,0.0831,0.0831,0.0831,0.0883,0.0884,0,0,0,0,0,0,0.0831,0.0828,0.0781,0.078,0.0817,0.0808,0.0805,0.0789,0.0801,0.0804,0.0796,0.0798,0.0814,0.0816,0.0817,0.0859,0.0831,0.0831,0.0831,0.0882,0.0883,0.0885,0,0,0,0,0,0,0.0832,0.0826,0.0781,0.0806,0.0801,0.0805,0.0787,0.0789,0.0805,0.0801,0.0804,0.0814,0.0815,0.0817,0.0824,0.0858,0.0831,0.0832,0.088,0.0882,0.0884,0.0898,0,0,0,0,0,0,0.0834,0.0826,0.0824,0.0805,0.08,0.0775,0.0786,0.0788,0.0802,0.0805,0.0817,0.082,0.0816,0.0824,0.0824,0.0857,0.0832,0.0879,0.0881,0.0883,0.0896,0.09,0.0904,0,0,0,0,0,0.0836,0.0828,0.0823,0.0818,0.0792,0.0775,0.0774,0.0781,0.0802,0.0802,0.0812,0.082,0.0841,0.0824,0.0824,0.0858,0.0877,0.088,0.0883,0.0894,0.09,0.0904,0,0,0,0,0,0,0.0857,0.0829,0.0824,0.0808,0.0795,0.078,0.0787,0.0792,0.0799,0.0812,0.0816,0.0818,0.0847,0.0846,0.0827,0.0884,0.0869,0.0873,0.0878,0.0883,0.0887,0.0901,0.0832,0,0,0,0,0,0.0858,0.0846,0.082,0.0811,0.0806,0.08,0.0801,0.0801,0.0801,0.0807,0.0819,0.0838,0.0854,0.0862,0.0874,0.0886,0.0897,0.0917,0.0921,0.0924,0.0938,0.0988,0.0998,0.0894,0.0894,0.0894,0,0,0.0867,0.0848,0.0844,0.0815,0.081,0.08,0.0804,0.0805,0.0811,0.0808,0.0835,0.0851,0.0862,0.0883,0.0898,0.0888,0.0953,0.0928,0.093,0.0942,0.0993,0.1003,0.1012,0.0896,0.0896,0.0895,0,0,0.0869,0.0859,0.0846,0.0835,0.0822,0.0816,0.0821,0.0816,0.0832,0.0843,0.0858,0.0888,0.0905,0.0921,0.093,0.0963,0.0976,0.0981,0.1006,0.1054,0.1063,0.1071,0.1066,0.1074,0.0979,0.0979,0.0979,0,0.0872,0.0849,0.0843,0.0827,0.0819,0.0827,0.0813,0.0827,0.0831,0.0844,0.0859,0.0913,0.0926,0.0955,0.0977,0.0973,0.0988,0.0981,0.1059,0.1068,0.1076,0.1069,0.1077,0.098,0.098,0.098,0.098,0,0.086,0.0845,0.0842,0.0819,0.0816,0.0806,0.0813,0.083,0.0859,0.0873,0.0921,0.0943,0.0975,0.0996,0.0999,0.1065,0.105,0.1059,0.1044,0.1087,0.1076,0.1085,0.0981,0.0981,0.0981,0.0981,0,0,0.0837,0.0828,0.0827,0.0814,0.0807,0.0799,0.0821,0.0827,0.0852,0.0893,0.0928,0.0982,0.1011,0.1026,0.1044,0.1097,0.1159,0.1111,0.1113,0.1099,0.1239,0.1024,0.1012,0.119,0.1193,0.1195,0.1195,0,0.0816,0.0787,0.0794,0.0779,0.0759,0.0777,0.0795,0.0817,0.0852,0.0895,0.0948,0.0993,0.1017,0.1044,0.1101,0.1154,0.1189,0.1156,0.1206,0.1206,0.1006,0.1017,0.0947,0.0925,0.1204,0.1205,0.1206,0,0.079,0.077,0.0749,0.0744,0.0741,0.075,0.0775,0.0794,0.0857,0.089,0.0949,0.0992,0.1069,0.1094,0.1197,0.1179,0.1216,0.1253,0.1254,0.1059,0.1007,0.0935,0.093,0.122,0.1219,0.1218,0.1217,0,0.0754,0.0739,0.0722,0.0717,0.072,0.0733,0.0751,0.0798,0.0825,0.09,0.0931,0.1015,0.1063,0.1149,0.1192,0.1224,0.1284,0.1329,0.1158,0.1142,0.1092,0.1065,0.1405,0.1405,0.1405,0.1405,0.1405,0,0.0709,0.0694,0.0714,0.0696,0.0704,0.0718,0.0747,0.0778,0.0834,0.0873,0.0937,0.0973,0.1093,0.1123,0.1188,0.1153,0.1269,0.1156,0.1133,0.1086,0.106,0.1334,0.1326,0.1405,0.1405,0.1405,0.1405,0,0.0675,0.0672,0.0663,0.0677,0.0684,0.0704,0.0744,0.0775,0.0818,0.0871,0.0899,0.0961,0.0996,0.1036,0.1139,0.1102,0.112,0.1074,0.0962,0.0923,0.0959,0.0952,0.093,0.0922,0.0916,0.0911,0.0906,0,0.0653,0.0644,0.0666,0.0678,0.069,0.0717,0.0742,0.0777,0.0808,0.0856,0.0883,0.0903,0.0904,0.0884,0.0849,0.0833,0.095,0.0713,0.0755,0.0933,0.0914,0.0917,0.0918,0.0708,0.0702,0.0698,0.0694,0,0.064,0.0666,0.0672,0.0682,0.0708,0.0733,0.0766,0.0767,0.0813,0.0837,0.0845,0.0837,0.0764,0.0676,0.0562,0.0565,0.0707,0.0608,0.0872,0.079,0.0711,0.0695,0.0708,0.0652,0.0657,0.066,0.0662,0.0664,0.0676,0.0681,0.07,0.0717,0.0734,0.0751,0.0744,0.0758,0.0769,0.074,0.0761,0.0673,0.0619,0.0395,0.0355,0.0296,0.0387,0.0389,0.0412,0.0438,0.0362,0.0271,0.0116,0.0117,0.0118,0.0118,0.0119,0,0.0716,0.072,0.0732,0.0737,0.0738,0.0764,0.0764,0.0724,0.0695,0.0631,0.0585,0.0422,0.0295,0.0252,0.0094,0.0029,0.0132,0.0025,0.0199,0.0236,0.027,0.0197,-0.0099,-0.0099,-0.0099,-0.0099,0,0,0.0745,0.0745,0.0737,0.0743,0.0751,0.0705,0.0695,0.0636,0.0555,0.0433,0.0327,0.0251,0.0215,0.0065,0.0023,-0.0053,0.0112,-0.0069,0.0101,0.0344,0.0379,0.0457,0.0377,0,0,0,0,0]},{"header":{"parameterUnit":"m.s-1","parameterCategory":2,"la1":30.2991,"la2":30.254,"lo1":-89.0895,"lo2":-89.0444,"dy":0.0017,"dx":0.0017,"nx":28,"ny":28,"refTime":"2024-09-02T09:00:00:Z","depth":"2","parameterNumber":3,"parameterNumberName":"V-component_of_CURRENTS"},"data":[0,0,0,0,0,0,0,0,0,0,0,0,0,0,0,0,0,0,0,0,0,0,0,0,0,0,0,0,0,0,0,0,0,0,0,0,0,0,0,0,0,0,0,0,0,0,0,0,0,0,0,0,0,0,0,0,0,0,0.0093,0.0093,0,0.0084,0.0084,0.0084,0.0041,0.004,0.0039,0.0038,0.0012,0.0012,0.0012,0,0,0,0,0,0,0,0,0,0,0,0,0,0.0093,0.0093,0.0093,0.0093,0.0093,0.0084,0.0084,0.0084,0.0041,0.004,0.0039,0.0038,0.0012,0.0012,0.0012,0,0,0,0,0,0,0,0,0,0,0,0,0,0.0087,0.0093,0.0093,0.0073,0.0072,0.0084,0.0084,0.0083,0.0041,0.004,0.0039,0.0038,0.0012,0.0012,0.0012,0.0034,0,0,0.0012,0.0012,0,0,0,0,0,0,0,0,0.0087,0.0086,0.0076,0.0075,0.0073,0.0065,0.0074,0.0067,0.0041,0.0049,0.0038,0.0037,0.0031,0.0029,0.0026,0.0033,0.0032,0.0012,0.0012,0.0012,0.0012,0,0,0,0,0,0,0,0.0088,0.0087,0.0087,0.0076,0.0074,0.0072,0.0069,0.0073,0.0044,0.0049,0.0046,0.005,0.0029,0.0026,0.0025,0.0031,0.0012,0.0012,0.0012,0.0012,0.0022,0.0022,0,0,0,0,0,0,0.0095,0.0087,0.0087,0.0087,0.0081,0.0073,0.007,0.0066,0.0044,0.0041,0.0051,0.0048,0.0027,0.0025,0.0024,0.0029,0.0012,0.0012,0.0012,0.0021,0.0022,0.0022,0,0,0,0,0,0,0.0095,0.0095,0.0087,0.0089,0.0089,0.0074,0.0071,0.0067,0.0052,0.0047,0.0042,0.0039,0.0026,0.0024,0.0016,0.0028,0.0012,0.0012,0.0021,0.0021,0.0022,0.0051,0,0,0,0,0,0,0.0095,0.0094,0.0091,0.009,0.0089,0.0098,0.0072,0.0067,0.0058,0.0054,0.0036,0.0032,0.0025,0.0016,0.0016,0.0028,0.0012,0.0021,0.0021,0.0022,0.005,0.0052,0.0055,0,0,0,0,0,0.0095,0.0097,0.009,0.009,0.0085,0.0099,0.0098,0.0082,0.0059,0.0061,0.0039,0.0032,0.0019,0.0016,0.0016,0.0028,0.002,0.0021,0.0022,0.0048,0.0052,0.0054,0,0,0,0,0,0,0.0088,0.0093,0.0086,0.0086,0.0094,0.0092,0.0094,0.008,0.0064,0.0053,0.0036,0.0032,0.0029,0.0024,0.0021,0.0031,0.0019,0.002,0.004,0.0043,0.0045,0.0062,0.0012,0,0,0,0,0,0.0088,0.0093,0.0098,0.01,0.0104,0.0096,0.0097,0.0088,0.0078,0.0069,0.0056,0.0041,0.0035,0.0034,0.0028,0.0038,0.0048,0.0045,0.0047,0.0049,0.0062,0.0096,0.0104,0.0024,0.0024,0.0024,0,0,0.0087,0.0091,0.0092,0.01,0.0101,0.0114,0.0092,0.0097,0.01,0.0071,0.0063,0.0048,0.0037,0.0042,0.0041,0.0039,0.0073,0.005,0.0052,0.0064,0.0098,0.0106,0.0113,0.0024,0.0024,0.0024,0,0,0.0099,0.009,0.0104,0.0112,0.0121,0.0122,0.0122,0.012,0.011,0.0108,0.0083,0.0079,0.0067,0.0068,0.0065,0.0081,0.0082,0.0072,0.0104,0.0137,0.0145,0.0151,0.016,0.0167,0.0078,0.0078,0.0078,0,0.01,0.0108,0.0111,0.0127,0.0133,0.0125,0.014,0.0137,0.0129,0.0129,0.0109,0.0099,0.0086,0.01,0.0099,0.009,0.0097,0.0094,0.0143,0.0149,0.0156,0.0163,0.0171,0.008,0.008,0.0079,0.0079,0,0.0122,0.0128,0.0138,0.0155,0.0165,0.0175,0.0179,0.0181,0.0165,0.0163,0.0166,0.0151,0.0149,0.0142,0.0122,0.0157,0.0143,0.0139,0.0139,0.0166,0.0171,0.0179,0.0082,0.0081,0.0081,0.0081,0,0,0.0124,0.015,0.0152,0.016,0.0176,0.0186,0.0201,0.0215,0.0222,0.0216,0.0232,0.0218,0.0209,0.0206,0.0187,0.0212,0.0251,0.0194,0.0195,0.0209,0.0308,0.0273,0.0277,0.0256,0.0258,0.0259,0.0289,0,0.014,0.0173,0.0181,0.0204,0.0218,0.0221,0.0236,0.0246,0.0249,0.0264,0.0262,0.0264,0.0234,0.0231,0.0254,0.0257,0.0274,0.0242,0.0275,0.0276,0.0247,0.0287,0.0265,0.0288,0.0296,0.0298,0.0298,0,0.0158,0.0174,0.0203,0.0225,0.0231,0.0241,0.0263,0.0276,0.0301,0.0304,0.0321,0.0316,0.0346,0.0313,0.0354,0.0334,0.0322,0.0322,0.0323,0.029,0.0255,0.0264,0.0301,0.0311,0.031,0.0309,0.0308,0,0.0159,0.0188,0.0209,0.0216,0.0242,0.0248,0.0258,0.0283,0.0299,0.0331,0.0353,0.0381,0.0403,0.0411,0.0404,0.0384,0.0448,0.0423,0.0377,0.0373,0.0362,0.0354,0.0449,0.0449,0.0449,0.0449,0.0449,0,0.0174,0.0187,0.0206,0.0214,0.0229,0.0245,0.0266,0.0283,0.0318,0.0358,0.0369,0.0418,0.0433,0.0464,0.044,0.044,0.0479,0.0396,0.039,0.0367,0.036,0.0386,0.0378,0.045,0.045,0.0449,0.0449,0,0.0176,0.0194,0.0209,0.0226,0.0231,0.0237,0.0264,0.0288,0.0318,0.0378,0.0392,0.0463,0.051,0.0504,0.053,0.0492,0.0487,0.0465,0.0423,0.0411,0.0375,0.0369,0.043,0.0429,0.0428,0.0428,0.0427,0,0.0182,0.0193,0.0208,0.022,0.0224,0.0236,0.0255,0.028,0.0315,0.0414,0.0454,0.0517,0.0565,0.0583,0.0533,0.0489,0.0487,0.0429,0.0386,0.0391,0.0379,0.0373,0.0368,0.0377,0.0376,0.0375,0.0375,0,0.0186,0.019,0.0208,0.023,0.0244,0.0263,0.0291,0.032,0.0378,0.0432,0.0537,0.0583,0.0598,0.0573,0.0499,0.046,0.0435,0.0411,0.0465,0.0375,0.0342,0.0329,0.0326,0.0369,0.0369,0.037,0.037,0.037,0.0185,0.0202,0.0233,0.0248,0.0271,0.0306,0.0324,0.0375,0.0438,0.052,0.0579,0.0612,0.0599,0.0483,0.0451,0.0385,0.0385,0.0349,0.0351,0.0355,0.0334,0.03,0.0314,0.0314,0.0315,0.0315,0.0315,0,0.0198,0.0226,0.0251,0.0287,0.0318,0.0317,0.0366,0.039,0.0467,0.0507,0.057,0.0527,0.0501,0.046,0.035,0.0307,0.0305,0.0294,0.0305,0.0311,0.0315,0.0293,0.0263,0.0263,0.0263,0.0263,0,0,0.0215,0.0255,0.0272,0.0324,0.0345,0.0386,0.0408,0.0438,0.0454,0.0482,0.0467,0.05,0.0461,0.0383,0.0349,0.0296,0.0304,0.0279,0.0319,0.0339,0.0345,0.0341,0.0311,0,0,0,0,0]}],[{"header":{"parameterUnit":"m.s-1","parameterCategory":2,"la1":30.2991,"la2":30.254,"lo1":-89.0895,"lo2":-89.0444,"dy":0.0017,"dx":0.0017,"nx":28,"ny":28,"refTime":"2024-09-02T09:00:00:Z","depth":"4","parameterNumber":2,"parameterNumberName":"U-component_of_CURRENTS"},"data":[0,0,0,0,0,0,0,0,0,0,0,0,0,0,0,0,0,0,0,0,0,0,0,0,0,0,0,0,0,0,0,0,0,0,0,0,0,0,0,0,0,0,0,0,0,0,0,0,0,0,0,0,0,0,0,0,0,0,-0.0411,-0.0411,0,-0.0421,-0.0421,-0.0421,-0.0412,-0.0412,-0.0412,-0.0411,-0.0338,-0.0337,-0.0335,0,0,0,0,0,0,0,0,0,0,0,0,0,-0.0355,-0.0356,-0.0411,-0.0411,-0.0411,-0.0421,-0.0421,-0.0421,-0.0413,-0.0412,-0.0412,-0.0411,-0.0339,-0.0337,-0.0335,0,0,0,0,0,0,0,0,0,0,0,0,0,-0.0374,-0.0357,-0.0411,-0.0408,-0.0408,-0.0421,-0.0421,-0.0421,-0.0413,-0.0412,-0.0412,-0.0411,-0.034,-0.0337,-0.0335,-0.0331,0,0,-0.0327,-0.0326,0,0,0,0,0,0,0,0,-0.0373,-0.0376,-0.0408,-0.0408,-0.0408,-0.0415,-0.0375,-0.0387,-0.0413,-0.0411,-0.0411,-0.0411,-0.0356,-0.0353,-0.0357,-0.0328,-0.0325,-0.0327,-0.0326,-0.0325,-0.0324,0,0,0,0,0,0,0,-0.0372,-0.0375,-0.0415,-0.0409,-0.0408,-0.0396,-0.0398,-0.0377,-0.0385,-0.0411,-0.041,-0.0411,-0.0356,-0.036,-0.0355,-0.0324,-0.0327,-0.0325,-0.0324,-0.0323,-0.0242,-0.0241,0,0,0,0,0,0,-0.0373,-0.0375,-0.0415,-0.0415,-0.0389,-0.0398,-0.04,-0.0413,-0.0387,-0.0384,-0.0412,-0.0411,-0.0364,-0.0358,-0.0352,-0.0323,-0.0325,-0.0323,-0.0321,-0.0243,-0.0242,-0.0241,0,0,0,0,0,0,-0.0372,-0.0377,-0.0414,-0.0394,-0.0398,-0.0399,-0.0414,-0.0414,-0.042,-0.0389,-0.0383,-0.0418,-0.0363,-0.0356,-0.0329,-0.0321,-0.0321,-0.0319,-0.0243,-0.0242,-0.0241,-0.0279,0,0,0,0,0,0,-0.037,-0.0377,-0.0394,-0.0395,-0.0399,-0.0421,-0.0415,-0.0414,-0.0421,-0.042,-0.0392,-0.0385,-0.0362,-0.0333,-0.0327,-0.0317,-0.0317,-0.0244,-0.0243,-0.0242,-0.0278,-0.0279,-0.0279,0,0,0,0,0,-0.0368,-0.0388,-0.0395,-0.04,-0.0421,-0.0421,-0.0422,-0.042,-0.0422,-0.0424,-0.0403,-0.0386,-0.032,-0.0331,-0.0324,-0.0313,-0.0245,-0.0243,-0.0242,-0.0278,-0.0279,-0.0279,0,0,0,0,0,0,-0.0364,-0.0389,-0.0396,-0.0421,-0.0422,-0.0419,-0.0427,-0.0426,-0.0415,-0.0415,-0.0385,-0.0376,-0.0344,-0.0324,-0.0338,-0.0283,-0.0276,-0.0273,-0.0306,-0.0307,-0.0307,-0.0274,-0.0315,0,0,0,0,0,-0.0375,-0.0404,-0.0409,-0.0429,-0.0432,-0.0433,-0.0436,-0.0435,-0.0423,-0.042,-0.0396,-0.0366,-0.0332,-0.0318,-0.0286,-0.0267,-0.0241,-0.0251,-0.0251,-0.0252,-0.0218,-0.0173,-0.0166,-0.0236,-0.0236,-0.0236,0,0,-0.0381,-0.0397,-0.0415,-0.0432,-0.0435,-0.0438,-0.0433,-0.0441,-0.0436,-0.0411,-0.0396,-0.0367,-0.0326,-0.0297,-0.0281,-0.0281,-0.0229,-0.025,-0.0251,-0.0216,-0.017,-0.0164,-0.0158,-0.0235,-0.0235,-0.0235,0,0,-0.0393,-0.0419,-0.044,-0.0444,-0.0452,-0.0451,-0.0454,-0.0451,-0.0443,-0.0425,-0.0401,-0.0363,-0.0325,-0.0289,-0.0267,-0.025,-0.0231,-0.0246,-0.0227,-0.0186,-0.0179,-0.0173,-0.0182,-0.0176,-0.0251,-0.0251,-0.0251,0,-0.0383,-0.0425,-0.0442,-0.0451,-0.0453,-0.0456,-0.046,-0.0455,-0.0441,-0.042,-0.0418,-0.0336,-0.0312,-0.0259,-0.0248,-0.025,-0.0237,-0.0236,-0.0187,-0.018,-0.0173,-0.0183,-0.0176,-0.0253,-0.0253,-0.0253,-0.0252,0,-0.041,-0.0436,-0.0444,-0.0463,-0.0465,-0.0472,-0.0464,-0.0453,-0.0442,-0.0424,-0.0368,-0.033,-0.0269,-0.0268,-0.0249,-0.019,-0.0205,-0.0194,-0.0189,-0.0169,-0.0181,-0.0173,-0.0255,-0.0255,-0.0254,-0.0254,0,0,-0.0371,-0.0449,-0.0446,-0.0461,-0.0474,-0.0471,-0.046,-0.0437,-0.0413,-0.0386,-0.0338,-0.028,-0.0248,-0.0216,-0.0197,-0.016,-0.0128,-0.0154,-0.0151,-0.017,-0.0068,-0.0114,-0.011,-0.0112,-0.011,-0.0108,-0.0115,0,-0.037,-0.0415,-0.0444,-0.0459,-0.0474,-0.0468,-0.0453,-0.043,-0.0401,-0.0355,-0.0303,-0.0248,-0.0236,-0.0201,-0.0162,-0.0115,-0.01,-0.0128,-0.0076,-0.0074,-0.0122,-0.0099,-0.01,-0.011,-0.0108,-0.0106,-0.0105,0,-0.0364,-0.04,-0.0436,-0.0462,-0.0462,-0.0461,-0.0424,-0.0406,-0.0347,-0.0314,-0.0248,-0.0214,-0.0136,-0.0137,-0.0051,-0.007,-0.0061,-0.0045,-0.0045,-0.0053,-0.0102,-0.0119,-0.0091,-0.0092,-0.0093,-0.0094,-0.0095,0,-0.033,-0.0376,-0.0413,-0.0424,-0.0454,-0.044,-0.0429,-0.0384,-0.0352,-0.0272,-0.0237,-0.0156,-0.0102,-0.0052,-0.0016,-0.0023,0.0055,0.0042,-0.0005,-0.0012,0.0045,0.004,0.0094,0.0094,0.0094,0.0094,0.0094,0,-0.0313,-0.033,-0.0402,-0.0415,-0.0419,-0.0423,-0.0388,-0.0359,-0.0301,-0.0259,-0.0205,-0.0158,-0.007,-0.0028,-0.0003,0.0023,0.0064,0.0018,0.0003,0.0021,0.0013,0.0047,0.0042,0.0093,0.0093,0.0093,0.0094,0,-0.0276,-0.033,-0.0361,-0.0403,-0.0411,-0.0398,-0.0376,-0.0342,-0.0291,-0.0231,-0.02,-0.0133,-0.0069,-0.0029,0.0045,0.0033,0.0063,0.0047,0.0037,0.0018,-0.0045,-0.0052,0.0006,0.0005,0.0004,0.0003,0.0003,0,-0.0273,-0.0296,-0.0352,-0.0367,-0.0388,-0.0377,-0.0366,-0.0326,-0.0293,-0.0223,-0.0197,-0.0129,-0.0089,-0.0017,0.0016,0.0041,0.0033,0.002,0.0024,-0.0024,-0.0044,-0.005,-0.0055,0.0001,0.0001,0.0,0.0,0,-0.0261,-0.0282,-0.0314,-0.0349,-0.0355,-0.0356,-0.034,-0.0318,-0.0264,-0.0234,-0.0162,-0.0125,-0.0075,-0.0019,-0.0006,0.0008,0.003,0.001,0.0012,0.0016,-0.003,-0.0051,-0.0055,-0.0003,-0.0003,-0.0003,-0.0002,0,-0.0239,-0.0256,-0.0301,-0.0321,-0.0336,-0.0334,-0.0327,-0.0294,-0.0254,-0.0189,-0.017,-0.0107,-0.006,-0.004,-0.0025,-0.001,-0.0015,-0.0028,-0.0023,-0.002,-0.0025,-0.0088,-0.0071,0,0,0,0,0,-0.0217,-0.0242,-0.0272,-0.0291,-0.0305,-0.0313,-0.0314,-0.0303,-0.0271,-0.0214,-0.0184,-0.0134,-0.009,-0.0068,-0.0056,-0.0074,-0.0038,-0.0068,-0.0056,-0.0023,-0.0019,-0.0025,0,0,0,0,0,0,-0.0202,-0.0237,-0.0265,-0.0266,-0.0271,-0.0274,-0.0277,-0.0264,-0.0231,-0.0197,-0.0159,-0.0145,-0.0092,-0.0069,-0.0048,-0.0049,-0.0049,-0.0042,-0.0044,-0.0026,-0.0022,-0.0019,-0.0023,0,0,0,0,0]},{"header":{"parameterUnit":"m.s-1","parameterCategory":2,"la1":30.2991,"la2":30.254,"lo1":-89.0895,"lo2":-89.0444,"dy":0.0017,"dx":0.0017,"nx":28,"ny":28,"refTime":"2024-09-02T09:00:00:Z","depth":"4","parameterNumber":3,"parameterNumberName":"V-component_of_CURRENTS"},"data":[0,0,0,0,0,0,0,0,0,0,0,0,0,0,0,0,0,0,0,0,0,0,0,0,0,0,0,0,0,0,0,0,0,0,0,0,0,0,0,0,0,0,0,0,0,0,0,0,0,0,0,0,0,0,0,0,0,0,0.0305,0.0305,0,0.0329,0.0329,0.0329,0.0359,0.036,0.0361,0.0362,0.033,0.0329,0.0327,0,0,0,0,0,0,0,0,0,0,0,0,0,0.0273,0.0274,0.0305,0.0305,0.0306,0.0329,0.0329,0.0329,0.0359,0.036,0.0361,0.0362,0.0331,0.0329,0.0327,0,0,0,0,0,0,0,0,0,0,0,0,0,0.0288,0.0274,0.0305,0.0326,0.0328,0.0329,0.0329,0.0329,0.0359,0.036,0.0361,0.0362,0.0331,0.0329,0.0327,0.029,0,0,0.032,0.0319,0,0,0,0,0,0,0,0,0.0288,0.0289,0.0322,0.0324,0.0327,0.0345,0.0307,0.0314,0.0359,0.0344,0.0362,0.0363,0.0331,0.0329,0.0328,0.0289,0.0288,0.032,0.0318,0.0317,0.0317,0,0,0,0,0,0,0,0.0287,0.0288,0.0311,0.0323,0.0326,0.033,0.0333,0.0308,0.0328,0.0346,0.0349,0.0355,0.0332,0.033,0.0327,0.0287,0.032,0.0318,0.0316,0.0315,0.0238,0.0237,0,0,0,0,0,0,0.0288,0.0287,0.0311,0.0312,0.0313,0.033,0.0334,0.0336,0.033,0.0331,0.0354,0.0357,0.0333,0.033,0.0326,0.0323,0.0317,0.0315,0.0314,0.0238,0.0238,0.0237,0,0,0,0,0,0,0.0287,0.029,0.031,0.0303,0.0306,0.033,0.0332,0.0336,0.0356,0.0337,0.0337,0.0374,0.0334,0.0329,0.0319,0.0321,0.0314,0.0312,0.0239,0.0238,0.0237,0.0291,0,0,0,0,0,0,0.0286,0.0289,0.0299,0.0303,0.0307,0.0317,0.0331,0.0335,0.0358,0.0362,0.0353,0.035,0.0334,0.0323,0.0317,0.0317,0.031,0.024,0.0239,0.0237,0.029,0.0292,0.0294,0,0,0,0,0,0.0285,0.0287,0.0299,0.0303,0.0317,0.0317,0.0319,0.0338,0.0358,0.0361,0.0361,0.0352,0.031,0.0321,0.0314,0.0314,0.0241,0.0239,0.0238,0.0289,0.0292,0.0294,0,0,0,0,0,0,0.0276,0.029,0.0304,0.0311,0.0319,0.0323,0.0334,0.0347,0.0351,0.0363,0.0348,0.0344,0.0335,0.031,0.0323,0.0284,0.0271,0.0268,0.0312,0.0314,0.0316,0.0322,0.0308,0,0,0,0,0,0.0279,0.0291,0.0298,0.0309,0.0313,0.0328,0.0337,0.035,0.0352,0.0358,0.0356,0.0341,0.0318,0.0309,0.0287,0.0266,0.0245,0.0257,0.0259,0.0261,0.0259,0.0232,0.0232,0.0232,0.0232,0.0232,0,0,0.0284,0.0292,0.0303,0.031,0.0321,0.0325,0.0336,0.0353,0.0366,0.035,0.037,0.0352,0.0314,0.0298,0.0289,0.0281,0.0249,0.0259,0.0261,0.0258,0.023,0.0231,0.0231,0.0231,0.0231,0.0231,0,0,0.0287,0.0302,0.031,0.0315,0.0333,0.0339,0.0348,0.0363,0.0379,0.0386,0.0377,0.0362,0.0338,0.031,0.029,0.0281,0.0262,0.0274,0.0287,0.0262,0.0262,0.0262,0.024,0.0238,0.0272,0.0272,0.0272,0,0.0292,0.0302,0.0312,0.0314,0.0325,0.0346,0.0354,0.0365,0.0381,0.039,0.0399,0.0361,0.0339,0.0301,0.0304,0.0287,0.0274,0.029,0.0267,0.0266,0.0266,0.0243,0.024,0.0274,0.0274,0.0274,0.0274,0,0.0295,0.0308,0.0311,0.0326,0.0334,0.0346,0.036,0.0385,0.0411,0.0416,0.0408,0.0377,0.0351,0.0338,0.0323,0.0297,0.0291,0.028,0.027,0.0269,0.0245,0.024,0.0278,0.0277,0.0276,0.0276,0,0,0.0289,0.031,0.0314,0.0327,0.0344,0.0351,0.0378,0.0395,0.0413,0.0422,0.0426,0.0389,0.0382,0.0356,0.0329,0.0305,0.0295,0.0299,0.0296,0.0291,0.0247,0.0247,0.0242,0.029,0.0289,0.0289,0.0236,0,0.0291,0.0304,0.0313,0.0334,0.0342,0.0369,0.0389,0.041,0.0425,0.0435,0.0409,0.0394,0.0383,0.0372,0.035,0.031,0.0285,0.031,0.0235,0.0232,0.0244,0.0237,0.0287,0.0232,0.0231,0.023,0.023,0,0.0288,0.0298,0.0318,0.0347,0.0353,0.0379,0.0418,0.0433,0.0445,0.0452,0.0437,0.0416,0.0384,0.0373,0.0311,0.0334,0.0296,0.0262,0.0259,0.0236,0.0224,0.0228,0.0222,0.0222,0.0223,0.0223,0.0224,0,0.0282,0.0302,0.0325,0.0333,0.0364,0.04,0.043,0.0452,0.046,0.0464,0.0459,0.0423,0.0404,0.0358,0.0306,0.0312,0.0235,0.0229,0.0184,0.0183,0.0178,0.0179,0.0173,0.0173,0.0174,0.0174,0.0174,0,0.0278,0.0297,0.0336,0.035,0.0386,0.0412,0.0452,0.0472,0.0485,0.0476,0.0468,0.0437,0.0403,0.0357,0.0308,0.024,0.0236,0.0184,0.0168,0.0201,0.0205,0.0176,0.0177,0.0172,0.0172,0.0173,0.0173,0,0.0275,0.0296,0.0322,0.0368,0.0386,0.0422,0.0476,0.0494,0.0507,0.0494,0.0492,0.0456,0.0399,0.0349,0.0269,0.024,0.0171,0.0141,0.0184,0.0173,0.0136,0.014,0.009,0.0089,0.0089,0.0089,0.0088,0,0.0278,0.029,0.0334,0.0353,0.0388,0.0442,0.0474,0.0508,0.0509,0.0488,0.0465,0.0424,0.0391,0.0284,0.0236,0.0151,0.0134,0.0112,0.0122,0.0136,0.0126,0.0131,0.0136,0.0088,0.0088,0.0088,0.0087,0,0.0276,0.0297,0.0312,0.0351,0.0397,0.0429,0.0475,0.0468,0.0483,0.0493,0.0438,0.0394,0.0328,0.0266,0.0211,0.0142,0.0141,0.0108,0.0108,0.0117,0.0133,0.0125,0.013,0.0086,0.0086,0.0086,0.0086,0,0.0273,0.0283,0.0305,0.0341,0.0386,0.0406,0.0432,0.0439,0.0443,0.0422,0.0401,0.0347,0.0334,0.0257,0.0193,0.0149,0.0131,0.0124,0.0123,0.0124,0.0157,0.0184,0.0136,0,0,0,0,0,0.0266,0.0271,0.0293,0.0323,0.0367,0.0399,0.0417,0.0433,0.0441,0.0403,0.0405,0.0342,0.0268,0.0231,0.0182,0.017,0.0115,0.011,0.0104,0.0078,0.008,0.0112,0,0,0,0,0,0,0.0258,0.0273,0.0278,0.0306,0.0331,0.0374,0.0391,0.0393,0.0368,0.0372,0.0327,0.0342,0.026,0.03,0.0186,0.0173,0.0164,0.0086,0.0085,0.0077,0.0078,0.008,0.0114,0,0,0,0,0]}]]